This is the latest recevied weather packets stored in our database for station/object NK0Z-13. If no packets are shown the sender has not sent any weather packets the latest 10 day(s).
| Time | Temp. | Humidity | Pressure | Rain* | Wind** | Luminosity | Snow |
|---|---|---|---|---|---|---|---|
| 1777298304 | 18.89° C | 79% | 1005.1 hPa | 0 mm | - | 301 W/m² | - |
| 1777297702 | 18.33° C | 80% | 1004.9 hPa | 0 mm | - | 272 W/m² | - |
| 1777297096 | 18.33° C | 80% | 1004.9 hPa | 0 mm | - | 250 W/m² | - |
| 1777296495 | 17.78° C | 84% | 1004.8 hPa | 0 mm | - | 238 W/m² | - |
| 1777295893 | 16.11° C | 88% | 1004.3 hPa | 0 mm | - | 175 W/m² | - |
| 1777295294 | 16.11° C | 89% | 1004.3 hPa | 0 mm | - | 76 W/m² | - |
| 1777294688 | 16.11° C | 89% | 1003.8 hPa | 0 mm | - | 50 W/m² | - |
| 1777294087 | 16.11° C | 90% | 1003.6 hPa | 0 mm | - | 55 W/m² | - |
| 1777293484 | 16.11° C | 90% | 1003.1 hPa | 0 mm | - | 56 W/m² | - |
| 1777292879 | 16.11° C | 89% | 1003.3 hPa | 0 mm | - | 42 W/m² | - |
| 1777292276 | 16.11° C | 89% | 1003.2 hPa | 0 mm | - | 36 W/m² | - |
| 1777291676 | 16.11° C | 88% | 1002.9 hPa | 0 mm | - | 24 W/m² | - |
| 1777291076 | 16.11° C | 88% | 1003.2 hPa | 0 mm | - | 9 W/m² | - |
| 1777290475 | 16.11° C | 89% | 1002.4 hPa | 0 mm | - | 3 W/m² | - |
| 1777289874 | 15.56° C | 91% | 1002.3 hPa | 0 mm | - | 1 W/m² | - |
| 1777289271 | 15.56° C | 92% | 1002 hPa | 0 mm | - | 0 W/m² | - |
| 1777288670 | 16.11° C | 93% | 1002 hPa | 0 mm | - | 0 W/m² | - |
| 1777288070 | 16.11° C | 93% | 1001.9 hPa | 0 mm | - | 0 W/m² | - |
| 1777287469 | 16.11° C | 93% | 1001.9 hPa | 0 mm | - | 0 W/m² | - |
| 1777286867 | 16.11° C | 93% | 1001.8 hPa | 0 mm | - | 0 W/m² | - |
| 1777286262 | 16.11° C | 93% | 1001.4 hPa | 0 mm | - | 0 W/m² | - |
| 1777285662 | 16.11° C | 94% | 1001.3 hPa | 0 mm | - | 0 W/m² | - |
| 1777285056 | 16.11° C | 95% | 1001.6 hPa | 0 mm | - | 0 W/m² | - |
| 1777284456 | 15.56° C | 96% | 1001.1 hPa | 0 mm | - | 0 W/m² | - |
| 1777283856 | 15.56° C | 97% | 1001.2 hPa | 0 mm | - | 0 W/m² | - |
* Rain latest hour (hover to see other rain measurements)
** Current wind speed in m/s (hover to see current wind gust speed)